This is the latest recevied weather packets stored in our database for station/object XQ6AK-15. If no packets are shown the sender has not sent any weather packets the latest 10 day(s).
| Time | Temp. | Humidity | Pressure | Rain* | Wind** | Luminosity | Snow |
|---|---|---|---|---|---|---|---|
| 1787697332 | 11.11° C | 99% | 998.8 hPa | 0 mm | - | 0 W/m² | - |
| 1787697028 | 11.11° C | 99% | 998.6 hPa | 0 mm | - | 0 W/m² | - |
| 1787696723 | 11.11° C | 99% | 998.6 hPa | 0 mm | - | 0 W/m² | - |
| 1787696420 | 11.11° C | 99% | 998.6 hPa | 0 mm | - | 0 W/m² | - |
| 1787696115 | 11.11° C | 99% | 998.4 hPa | 0 mm | - | 2 W/m² | - |
| 1787695814 | 11.11° C | 99% | 998.5 hPa | 0 mm | - | 3 W/m² | - |
| 1787695509 | 11.11° C | 99% | 998.4 hPa | 0 mm | - | 5 W/m² | - |
| 1787695204 | 11.11° C | 99% | 998.3 hPa | 0 mm | - | 14 W/m² | - |
| 1787694903 | 11.11° C | 99% | 998.2 hPa | 0 mm | - | 9 W/m² | - |
| 1787694598 | 11.11° C | 99% | 998.4 hPa | 0 mm | - | 11 W/m² | - |
| 1787694292 | 11.11° C | 99% | 998.3 hPa | 0 mm | - | 10 W/m² | - |
| 1787693988 | 11.11° C | 99% | 998.4 hPa | 0 mm | - | 22 W/m² | - |
| 1787693683 | 11.11° C | 99% | 998.3 hPa | 0 mm | - | 33 W/m² | - |
| 1787693380 | 11.11° C | 99% | 998.3 hPa | 0 mm | - | 46 W/m² | - |
| 1787693076 | 11.11° C | 99% | 998.4 hPa | 0 mm | - | 33 W/m² | - |
| 1787692772 | 11.11° C | 99% | 998.4 hPa | 0 mm | - | 47 W/m² | - |
| 1787692472 | 11.11° C | 99% | 998.4 hPa | 0 mm | - | 59 W/m² | - |
| 1787692166 | 11.11° C | 99% | 998.3 hPa | 0 mm | - | 144 W/m² | - |
| 1787691865 | 10.56° C | 99% | 998.2 hPa | 0 mm | - | 62 W/m² | - |
| 1787691564 | 10.56° C | 99% | 998.2 hPa | 0 mm | - | 15 W/m² | - |
| 1787691263 | 10.56° C | 99% | 998.4 hPa | 4.32 mm | - | 27 W/m² | - |
| 1787690958 | 10.56° C | 99% | 998 hPa | 7.87 mm | - | 90 W/m² | - |
| 1787690653 | 10.56° C | 99% | 998.2 hPa | 6.1 mm | - | 26 W/m² | - |
| 1787690348 | 10.56° C | 99% | 998.4 hPa | 4.32 mm | - | 24 W/m² | - |
| 1787690045 | 10.56° C | 99% | 998.4 hPa | 3.05 mm | - | 18 W/m² | - |
* Rain latest hour (hover to see other rain measurements)
** Current wind speed in m/s (hover to see current wind gust speed)